PHOGKPSP

Guest
Details From PHOG - Kahului
To KPSP - Palm Springs Intl
Flight Number -
Tags Generated
Created
Modified
Stats Distance 2,251 nm / 4,169 km
Max Altitude 0 ft / 0 m
Waypoints 3
Social Downloads 2
Likes 0
Share VATSIM

Download

Looking for another format? Having issues loading an existing format? Contact us
Advertisement - Login to hide

Notes

Generated

Route

PHOG HEMET KPSP

ID Type Via Altitude Latitude Longitude Leg Dist Tot Dist Heading (true) Name
O PHOG APT - 0 ft / 0 m 20.89802˚ -156.43710˚ - 0 nm - -
HEMET FIX - 0 ft / 0 m 33.69049˚ -116.87905˚ 2230 nm 2230 nm 61° / 80° -
O KPSP APT - 0 ft / 0 m 33.83517˚ -116.50967˚ 20 nm 2250 nm 65° / 65° -

Altitude Profile

Advertisement - Login to hide

Weather


0- 5 10 15 20 25 30 35+ Temperature / ° C

Clouds and Precipitation
Forecast for 2018-05-20 12:00 UTC. Updated an hour ago

Ground ~20,000 ft ~40,000 ft Winds

PHOG

Details ICAO PHOG (OGG)
Name Kahului
Region USA (Hawaii)
Timezone Pacific/Honolulu (UTC-10.0)
Stats Elevation 54 ft / 16 m (AMSL)
Location 20.898975° -156.430460°
Runways 2
Magnetic Variation 9.515° E

METAR

PHOG 201154Z AUTO 05012KT 9SM -RA BKN060 23/20 A3006

Decode

TAF

TAF PHOG 201126Z 2012/2112 05012KT P6SM FEW050 FM202000 05024G32KT P6SM SCT045 FM210600 06014G21KT P6SM FEW050 AMD LTD TO VIS AND WIND TIL 201600

Decode

Departure Runways

ID Width Length Bearing (true) Bearing (mag) Surface Threshold Offset Overrun Length
02 150 ft / 46 m 7,013 ft / 2,138 m 34.81° 25.30° Asphalt 0 ft / 0 m 0 ft / 0 m
05 150 ft / 46 m 4,989 ft / 1,521 m 64.91° 55.40° Asphalt 0 ft / 0 m 0 ft / 0 m
20 150 ft / 46 m 7,013 ft / 2,138 m 214.81° 205.30° Asphalt 0 ft / 0 m 0 ft / 0 m
23 150 ft / 46 m 4,989 ft / 1,521 m 244.91° 235.40° Asphalt 0 ft / 0 m 0 ft / 0 m

KPSP

Details ICAO KPSP (PSP)
Name Palm Springs Intl
Region United States
Timezone America/Los_Angeles (UTC-7.0)
Stats Elevation 477 ft / 145 m (AMSL)
Location 33.829677° -116.506218°
Runways 2
Magnetic Variation 11.542° E

METAR

KPSP 201153Z AUTO 00000KT 10SM CLR 19/12 A2977 RMK AO2 SLP077 T01940117 10250 20189 53005

Decode

TAF

TAF KPSP 201120Z 2012/2112 VRB06KT P6SM SKC FM202100 33012G22KT P6SM SKC

Decode

Destination Runways

ID Width Length Bearing (true) Bearing (mag) Surface Threshold Offset Overrun Length
13L 75 ft / 23 m 4,958 ft / 1,511 m 143.52° 131.98° Asphalt 0 ft / 0 m 151 ft / 46 m
13R 151 ft / 46 m 10,012 ft / 3,052 m 143.52° 131.98° Asphalt 2,999 ft / 914 m 200 ft / 61 m
31L 151 ft / 46 m 10,012 ft / 3,052 m 323.53° 311.99° Asphalt 1,499 ft / 457 m 200 ft / 61 m
31R 75 ft / 23 m 4,958 ft / 1,511 m 323.53° 311.99° Asphalt 0 ft / 0 m 151 ft / 46 m